This demonstration page uses our WeatherBlox Daily Observations layout. Learn more.

Hourly Observations for June 6, 2020

Temp ( °F °C ) Dew Point ( °F °C ) Humidity (%) Winds ( mph kmh ) Pressure ( in mb ) Visibility ( mi km ) Precip ( " mm )
12:15 am 00:15 Clear 78 25.8 64 18 62 62 SE 9 15 29.8 1009 10 16.0934 0 0
12:35 am 00:35 Clear 77 25.1 64 18 65 65 SE 9 15 29.8 1009 10 16.0934 0 0
12:55 am 00:55 Clear 76 24.6 65 18.1 67 67 SE 8 13 29.8 1009 10 16.0934 0 0
1:15 am 01:15 Clear 75 24 65 18.2 70 70 SE 8 13 29.8 1009 10 16.0934 0 0
1:35 am 01:35 Clear 74 23.6 65 18.3 72 72 SE 8 13 29.8 1009 10 16.0934 0 0
1:55 am 01:55 Clear 74 23.5 65 18.3 73 73 SE 7 11 29.8 1009 10 16.0934 0 0
2:15 am 02:15 Clear 74 23.5 65 18.2 72 72 SSE 6 9 29.8 1009 10 16.0934 0 0
2:35 am 02:35 Clear 74 23.2 65 18.2 74 74 SE 8 13 29.8 1009 10 16.0934 0 0
2:55 am 02:55 Clear 74 23.2 65 18.2 74 74 SSE 8 13 29.8 1009 10 16.0934 0 0
3:15 am 03:15 Clear 74 23.5 65 18.1 72 72 SSE 6 9 29.8 1009 10 16.0934 0 0
3:35 am 03:35 Clear 74 23.5 64 18 71 71 SSE 7 11 29.79 1009 10 16.0934 0 0
3:55 am 03:55 Clear 74 23.5 64 18 71 71 SSE 6 9 29.79 1009 10 16.0934 0 0
4:15 am 04:15 Clear 74 23.5 64 17.8 70 70 SSE 7 11 29.79 1009 10 16.0934 0 0
4:35 am 04:35 Clear with Nearby Thunderstorms 74 23.2 64 17.8 72 72 SSE 3 6 29.8 1009 10 16.0934 0 0
4:55 am 04:55 Clear 73 22.8 64 18 74 74 ESE 6 9 29.8 1009 10 16.0934 0 0
5:15 am 05:15 Clear 73 22.5 64 18 76 76 ESE 8 13 29.82 1010 10 16.0934 0 0
5:35 am 05:35 Clear 72 22.1 64 17.9 77 77 ESE 6 9 29.81 1009 10 16.0934 0 0
5:55 am 05:55 Clear 72 22.2 64 18 77 77 SE 8 13 29.82 1010 10 16.0934 0 0
6:15 am 06:15 Partly Cloudy 72 22 64 18 78 78 ESE 8 13 29.83 1010 10 16.0934 0 0
6:35 am 06:35 Cloudy 72 22 65 18.4 80 80 NE 10 17 29.85 1011 10 16.0934 0 0
6:55 am 06:55 Cloudy 73 23 64 18 74 74 NE 12 19 29.85 1011 10 16.0934 0 0
7:15 am 07:15 Cloudy 74 23.2 64 18 73 73 ENE 9 15 29.85 1011 10 16.0934 0 0
7:35 am 07:35 Cloudy 74 23.1 65 18.3 74 74 E 13 20 29.84 1011 10 16.0934 0 0
7:55 am 07:55 Partly Cloudy 74 23.1 65 18.5 75 75 E 12 19 29.84 1011 10 16.0934 0 0
8:15 am 08:15 Sunny 74 23.5 66 18.8 75 75 ESE 15 24 29.82 1010 10 16.0934 0 0
8:35 am 08:35 Partly Cloudy 74 23.4 65 18.5 74 74 E 12 19 29.84 1010 10 16.0934 0 0
8:55 am 08:55 Mostly Cloudy 73 23 65 18.5 76 76 E 9 15 29.85 1011 10 16.0934 0 0
9:15 am 09:15 Partly Cloudy 73 23 66 18.7 77 77 ESE 10 17 29.83 1010 10 16.0934 0 0
9:35 am 09:35 Sunny 74 23.2 65 18.6 75 75 ESE 14 22 29.82 1010 10 16.0934 0 0
9:55 am 09:55 Sunny 74 23.1 66 18.8 77 77 SE 10 17 29.82 1010 10 16.0934 0 0
10:15 am 10:15 Sunny 74 23.3 66 19.1 77 77 SE 12 19 29.82 1010 10 16.0934 0 0
10:35 am 10:35 Sunny 74 23.6 67 19.2 76 76 SE 10 17 29.82 1010 10 16.0934 0 0
10:55 am 10:55 Sunny 75 23.7 67 19.4 77 77 SSE 8 13 29.82 1010 10 16.0934 0 0
11:15 am 11:15 Sunny 76 24.5 68 20 76 76 SSE 10 17 29.8 1009 10 16.0934 0 0
11:35 am 11:35 Sunny 79 25.9 68 20.1 70 70 SSE 14 22 29.78 1008 10 16.0934 0 0
11:55 am 11:55 Sunny 80 26.5 68 20.2 68 68 SSE 12 19 29.78 1008 10 16.0934 0 0
12:15 pm 12:15 Sunny 81 27.3 68 20.1 65 65 SSE 14 22 29.76 1008 10 16.0934 0 0
12:35 pm 12:35 Sunny 83 28.1 68 20 61 61 SSE 17 28 29.75 1008 10 16.0934 0 0
12:55 pm 12:55 Sunny 85 29.3 68 20.2 58 58 SSE 17 28 29.73 1007 10 16.0934 0 0
1:15 pm 13:15 Sunny 86 30 68 20.1 55 55 SSE 18 30 29.72 1006 10 16.0934 0 0
1:35 pm 13:35 Sunny 88 31 67 19.7 51 51 SSE 20 31 29.7 1006 10 16.0934 0 0
1:55 pm 13:55 Sunny 89 31.8 67 19.4 48 48 SSE 21 33 29.69 1006 10 16.0934 0 0
2:15 pm 14:15 Sunny 92 33.1 66 18.9 43 43 SSE 23 37 29.67 1005 10 16.0934 0 0
2:35 pm 14:35 Sunny 93 33.8 65 18.2 40 40 S 26 43 29.65 1004 10 16.0934 0 0
2:55 pm 14:55 Sunny 94 34.4 64 17.5 37 37 S 22 35 29.64 1004 10 16.0934 0 0
3:15 pm 15:15 Sunny 95 35 61 16.1 32 32 S 29 46 29.63 1003 10 16.0934 0 0
3:35 pm 15:35 Sunny 95 34.8 61 16 32 32 S 20 31 29.63 1003 10 16.0934 0 0
3:55 pm 15:55 Sunny 95 35 61 16 32 32 SSE 23 37 29.62 1003 10 16.0934 0 0
4:15 pm 16:15 Sunny 95 35.2 60 15.6 31 31 S 25 41 29.6 1002 10 16.0934 0 0
4:35 pm 16:35 Sunny 96 35.5 59 15.2 30 30 S 31 50 29.59 1002 10 16.0934 0 0
4:55 pm 16:55 Sunny 96 35.4 56 13.5 27 27 S 26 43 29.58 1002 10 16.0934 0 0
5:15 pm 17:15 Sunny 96 35.6 57 14 27 27 S 23 37 29.57 1001 10 16.0934 0 0
5:35 pm 17:35 Sunny 94 34.5 59 15.2 31 31 SSE 26 43 29.57 1002 10 16.0934 0 0
5:55 pm 17:55 Sunny 93 33.9 59 15 32 32 S 22 35 29.58 1002 10 16.0934 0 0
6:15 pm 18:15 Sunny 92 33.3 60 15.8 35 35 SSE 17 28 29.58 1002 10 16.0934 0 0
6:35 pm 18:35 Sunny 93 34.1 60 15.4 33 33 SSE 22 35 29.57 1001 10 16.0934 0 0
6:55 pm 18:55 Sunny 92 33.5 59 14.8 32 32 SSE 22 35 29.57 1001 10 16.0934 0 0
7:15 pm 19:15 Sunny 92 33.2 60 15.3 34 34 SSE 22 35 29.56 1001 10 16.0934 0 0
7:35 pm 19:35 Sunny 91 32.6 61 16.1 37 37 SSE 25 41 29.57 1001 10 16.0934 0 0
7:55 pm 19:55 Sunny 90 32.1 62 16.5 39 39 SSE 23 37 29.56 1001 10 16.0934 0 0
8:15 pm 20:15 Sunny 89 31.6 62 16.4 40 40 SSE 20 31 29.58 1002 10 16.0934 0 0
8:35 pm 20:35 Sunny 87 30.7 61 16.3 42 42 SSE 18 30 29.58 1002 10 16.0934 0 0
8:55 pm 20:55 Sunny 86 30 60 15.8 42 42 SSE 21 33 29.59 1002 10 16.0934 0 0
9:15 pm 21:15 Clear 85 29.3 60 15.5 43 43 SSE 17 28 29.6 1003 10 16.0934 0 0
9:35 pm 21:35 Clear 84 28.7 60 15.6 45 45 SSE 16 26 29.62 1003 10 16.0934 0 0
9:55 pm 21:55 Clear 82 27.9 61 16.1 49 49 SSE 14 22 29.63 1004 10 16.0934 0 0
10:15 pm 22:15 Clear 82 28 63 17 51 51 SSE 15 24 29.64 1004 10 16.0934 0 0
10:35 pm 22:35 Clear 82 27.5 63 17 53 53 SSE 15 24 29.65 1004 10 16.0934 0 0
10:55 pm 22:55 Clear 81 27.1 63 17 54 54 SSE 15 24 29.65 1004 10 16.0934 0 0
11:15 pm 23:15 Clear 80 26.8 63 17 55 55 SSE 17 28 29.65 1004 10 16.0934 0 0
11:35 pm 23:35 Clear 80 26.5 63 17.3 57 57 SSE 16 26 29.66 1004 10 16.0934 0 0
11:55 pm 23:55 Clear 80 26.5 64 17.6 58 58 SSE 14 22 29.67 1005 10 16.0934 0 0

Powered by AerisWeather